Location: Burland Observatory
(39.4088°N, 105.4217°W)
Time: 01:51:58
(UTC-07:00)

Vanguard 3 - All Passes

Search period start: 08 December 2019 00:00
Search period end: 18 December 2019 00:00
Orbit: 508 x 3263 km, 33.3° (Epoch: 07 December)

Date Brightness Start Highest point End Pass type
(mag) Time Alt. Az. Time Alt. Az. Time Alt. Az.
08 Dec - 05:43:44 10° SE 05:45:17 11° SE 05:46:59 10° ESE visible
08 Dec - 07:48:06 10° SW 07:55:36 43° SSE 08:08:21 10° E daylight
08 Dec - 09:58:17 10° WSW 10:08:44 68° S 10:26:22 10° E daylight
08 Dec - 12:10:16 10° W 12:23:58 63° SSW 12:43:22 10° ESE daylight
08 Dec - 14:24:15 10° W 14:39:31 40° SSW 14:56:49 10° SSE daylight
08 Dec - 16:44:46 10° WSW 16:53:38 15° SW 17:02:25 10° SSW visible
09 Dec - 06:36:11 10° SSW 06:41:51 26° SE 06:50:28 10° E visible
09 Dec - 08:44:56 10° WSW 08:53:30 59° SSE 09:08:35 10° E daylight
09 Dec - 10:56:03 10° W 11:07:42 67° S 11:26:19 10° ESE daylight
09 Dec - 13:08:45 10° W 13:23:09 50° SSW 13:41:49 10° SE daylight
09 Dec - 15:24:48 10° W 15:38:04 25° SW 15:52:07 10° S daylight
10 Dec - 05:26:40 10° SSE 05:28:43 11° SE 05:31:04 10° ESE visible
10 Dec - 07:32:09 10° SW 07:39:03 44° SSE 07:50:56 10° E daylight
10 Dec - 09:42:21 10° WSW 09:51:59 67° S 10:08:44 10° E daylight
10 Dec - 11:54:07 10° W 12:06:50 59° SSW 12:25:39 10° ESE daylight
10 Dec - 14:07:58 10° W 14:22:05 36° SSW 14:38:51 10° SSE daylight
10 Dec - 16:30:30 10° WSW 16:36:16 12° SW 16:42:06 10° SSW daylight
11 Dec - 06:20:08 10° SSW 06:25:22 27° SE 06:33:25 10° E visible
11 Dec - 08:29:05 10° WSW 08:36:57 60° SSE 08:51:03 10° E daylight
11 Dec - 10:40:03 10° W 10:50:49 65° S 11:08:36 10° ESE daylight
11 Dec - 12:52:35 10° W 13:05:53 46° SSW 13:23:55 10° SE daylight
11 Dec - 15:08:56 10° W 15:20:40 22° SW 15:33:31 10° S daylight
12 Dec - 05:10:00 10° SSE 05:12:15 12° SE 05:14:55 10° ESE visible
12 Dec - 07:16:18 10° SW 07:22:37 46° SSE 07:33:36 10° E daylight
12 Dec - 09:26:29 10° WSW 09:35:21 66° S 09:51:05 10° ESE daylight
12 Dec - 11:38:04 10° W 11:49:48 54° SSW 12:07:48 10° SE daylight
12 Dec - 13:51:54 10° W 14:04:46 31° SSW 14:20:35 10° SSE daylight
13 Dec - 06:04:09 10° SSW 06:08:59 28° SE 06:16:26 10° E visible
13 Dec - 08:13:18 10° WSW 08:20:30 60° S 08:33:33 10° E daylight
13 Dec - 10:24:09 10° W 10:34:03 61° S 10:50:50 10° ESE daylight
13 Dec - 12:36:32 10° W 12:48:44 41° SSW 13:05:49 10° SE daylight
13 Dec - 14:53:34 10° WSW 15:03:23 18° SW 15:14:21 10° S daylight
14 Dec - 04:53:31 10° SSE 04:55:53 13° SE 04:58:43 10° ESE visible
14 Dec - 07:00:30 10° SW 07:06:19 47° SSE 07:16:21 10° E daylight
14 Dec - 09:10:41 10° W 09:18:50 63° S 09:33:27 10° ESE daylight
14 Dec - 11:22:08 10° W 11:32:53 49° SSW 11:49:49 10° SE daylight
14 Dec - 13:36:05 10° W 13:47:34 27° SW 14:02:01 10° SSE daylight
15 Dec - 05:48:14 10° SSW 05:52:43 29° SSE 05:59:34 10° E visible
15 Dec - 07:57:33 10° WSW 08:04:10 59° S 08:16:08 10° E daylight
15 Dec - 10:08:20 10° W 10:17:24 56° SSW 10:33:01 10° ESE daylight
15 Dec - 12:20:40 10° W 12:31:44 36° SSW 12:47:31 10° SSE daylight
15 Dec - 14:38:59 10° WSW 14:46:16 14° SW 14:54:19 10° SSW daylight
16 Dec - 04:37:11 10° S 04:39:36 14° SE 04:42:31 10° ESE visible
16 Dec - 06:44:46 10° SW 06:50:06 47° SSE 06:59:13 10° E visible
16 Dec - 08:54:57 10° W 09:02:24 60° S 09:15:51 10° ESE daylight
16 Dec - 11:06:18 10° W 11:16:06 44° SSW 11:31:44 10° SE daylight
16 Dec - 13:20:36 10° WSW 13:30:32 22° SW 13:43:04 10° S daylight
17 Dec - 05:32:24 10° SW 05:36:33 30° SSE 05:42:48 10° E visible
17 Dec - 07:41:53 10° WSW 07:47:56 57° S 07:58:48 10° E daylight
17 Dec - 09:52:35 10° W 10:00:51 51° SSW 10:15:10 10° SE daylight
17 Dec - 12:05:00 10° W 12:14:52 30° SSW 12:28:59 10° SSE daylight
17 Dec - 14:27:27 10° SW 14:29:17 10° SW 14:31:10 10° SW daylight
